EW8833 Weather Reports


time (UTC)temp
F
wind
direction
speed
knots
gust
knots
rain 1hr
in
rain 24hr
in
rain mn
in
humidity
%
barometer
mb
20260505002028 56 344 2.6 3.5 0.00 0.10 0.10 70 820.8
20260505001501 56 333 1.7 3.5 0.00 0.10 0.10 68 820.7
20260505000930 56 333 1.7 3.5 0.00 0.10 0.10 68 820.6
20260505000400 56 333 1.7 2.6 0.00 0.10 0.10 69 820.5
20260504234857 55 15 0.0 1.7 0.00 0.10 0.10 71 820.6
20260504234345 55 15 0.0 1.7 0.01 0.10 0.10 71 820.6
20260504233842 55 15 0.9 1.7 0.01 0.10 0.10 72 820.5
20260504233341 55 15 0.9 1.7 0.02 0.10 0.10 73 820.5
20260504232838 54 15 0.9 1.7 0.03 0.10 0.10 74 820.6
20260504232335 54 15 0.9 3.5 0.03 0.10 0.10 76 820.5
20260504231835 54 15 2.6 4.3 0.03 0.10 0.10 76 820.4
20260504231328 54 15 2.6 5.2 0.03 0.10 0.10 76 820.4
20260504230826 54 26 2.6 6.1 0.03 0.10 0.10 79 820.6
20260504230325 54 282 3.5 6.1 0.03 0.10 0.10 74 820.4
20260504225814 54 282 4.3 9.6 0.03 0.10 0.10 74 820.2
20260504225312 54 252 4.3 9.6 0.03 0.10 0.10 72 820.5
20260504224810 55 267 5.2 11.3 0.03 0.10 0.10 72 820.4
20260504224313 56 272 5.2 11.3 0.02 0.09 0.09 68 820.7
20260504223748 57 284 2.6 9.6 0.02 0.09 0.09 65 820.6
20260504223251 58 310 0.9 3.5 0.01 0.08 0.08 66 820.7
20260504222726 58 306 0.9 4.3 0.00 0.07 0.07 54 820.6
20260504222159 58 306 0.9 4.3 0.00 0.07 0.07 53 820.4
20260504221633 58 65 2.6 8.7 0.00 0.07 0.07 54 820.4
20260504221130 59 65 6.1 9.6 0.00 0.07 0.07 53 820.0
20260504220606 59 35 6.1 11.3 0.00 0.07 0.07 54 819.8
20260504220046 59 24 5.2 11.3 0.00 0.07 0.07 55 819.5
20260504215542 59 40 6.1 9.6 0.00 0.07 0.07 57 819.4
20260504215039 58 48 7.0 11.3 0.00 0.07 0.07 57 819.4
20260504214537 58 48 7.8 11.3 0.00 0.07 0.07 59 819.4
20260504214038 58 51 7.8 13.9 0.01 0.07 0.07 58 819.5
20260504213530 58 65 7.8 13.9 0.02 0.07 0.07 60 819.6
20260504213030 58 69 8.7 13.9 0.05 0.07 0.07 58 819.8
20260504212528 58 62 11.3 19.1 0.07 0.07 0.07 60 819.9
20260504212249 59 32 12.2 19.1 0.07 0.07 0.07 58 819.9
20260504211027 57 60 9.6 16.5 0.07 0.07 0.07 66 820.2
20260504210528 56 94 9.6 14.8 0.07 0.07 0.07 65 820.2
20260504210025 56 83 9.6 13.0 0.07 0.07 0.07 67 820.2
20260504205523 56 88 8.7 14.8 0.07 0.07 0.07 64 820.2
20260504205025 56 71 7.8 13.9 0.07 0.07 0.07 64 820.0
20260504204524 56 69 10.4 19.1 0.07 0.07 0.07 60 820.1
20260504204256 57 66 10.4 19.1 0.06 0.06 0.06 55 820.0
20260504203504 59 52 9.6 15.6 0.05 0.05 0.05 53 819.9
20260504203233 62 5 10.4 15.6 0.01 0.01 0.01 51 819.7
20260504202502 65 348 8.7 14.8 0.00 0.00 0.00 43 819.5
20260504202227 67 335 7.8 13.0 0.00 0.00 0.00 34 819.3
20260504201503 67 330 7.8 13.0 0.00 0.00 0.00 34 819.1
20260504200943 68 337 7.0 11.3 0.00 0.00 0.00 34 819.0
20260504195941 69 339 7.8 15.6 0.00 0.00 0.00 33 818.7
20260504195441 69 10 10.4 15.6 0.00 0.00 0.00 33 818.7
20260504194942 69 40 11.3 18.2 0.00 0.00 0.00 33 818.6
20260504194431 69 42 10.4 18.2 0.00 0.00 0.00 34 818.4
20260504194146 69 348 10.4 18.2 0.00 0.00 0.00 34 818.5
20260504193428 69 343 11.3 18.2 0.00 0.00 0.00 33 818.8
20260504192928 70 15 11.3 16.5 0.00 0.00 0.00 33 818.7
20260504192428 71 32 9.6 14.8 0.00 0.00 0.00 32 818.8
20260504191927 71 335 7.8 14.8 0.00 0.00 0.00 31 818.9
20260504191416 71 312 8.7 13.0 0.00 0.00 0.00 32 818.9
20260504190913 70 306 8.7 15.6 0.00 0.00 0.00 32 819.0
20260504190414 70 332 8.7 15.6 0.00 0.00 0.00 33 819.0
20260504185917 69 0 8.7 13.9 0.00 0.00 0.00 33 819.1
20260504185353 69 261 8.7 13.9 0.00 0.00 0.00 33 819.2
20260504184824 69 292 8.7 13.9 0.00 0.00 0.00 34 819.2
20260504184255 68 293 9.6 13.9 0.00 0.00 0.00 34 819.2
20260504183726 68 293 9.6 13.9 0.00 0.00 0.00 33 819.3
20260504183216 68 223 8.7 13.0 0.00 0.00 0.00 34 819.4
20260504182909 68 257 7.0 13.0 0.00 0.00 0.00 34 819.4
20260504182131 67 284 7.8 14.8 0.00 0.00 0.00 34 819.4
20260504181633 67 284 9.6 14.8 0.00 0.00 0.00 34 819.6
20260504181108 67 309 9.6 16.5 0.00 0.00 0.00 35 819.6
20260504180611 66 240 9.6 16.5 0.00 0.00 0.00 36 819.6
20260504180045 66 242 10.4 15.6 0.00 0.00 0.00 36 819.7
20260504175734 65 271 9.6 17.4 0.00 0.00 0.00 36 819.9
20260504174958 65 271 9.6 17.4 0.00 0.00 0.00 36 820.0
20260504174502 65 257 11.3 16.5 0.00 0.00 0.00 37 820.1
20260504173933 65 232 10.4 17.4 0.00 0.00 0.00 37 820.2
20260504173405 64 252 9.6 18.2 0.00 0.00 0.00 37 820.3
20260504173100 64 232 9.6 18.2 0.00 0.00 0.00 37 820.2
20260504172325 64 263 8.7 19.1 0.00 0.00 0.00 37 820.3
20260504171254 64 265 12.2 19.1 0.00 0.00 0.00 37 820.5
20260504170727 63 272 13.9 21.7 0.00 0.00 0.00 37 820.4
20260504170159 63 290 13.9 21.7 0.00 0.00 0.00 37 820.3
20260504160110 63 288 7.0 18.2 0.00 0.00 0.00 37 820.4
20260504150958 63 290 11.3 19.1 0.00 0.00 0.00 35 820.4
20260504150425 63 280 11.3 19.1 0.00 0.00 0.00 35 820.5
20260504141052 63 249 7.0 13.0 0.00 0.00 0.00 34 820.5
20260504140551 62 254 7.0 13.0 0.00 0.00 0.00 34 820.5
20260504130805 61 0 9.6 17.4 0.00 0.00 0.00 34 820.3
20260504110321 47 0 1.7 3.5 0.00 0.00 0.00 47 820.4
20260504100452 47 0 1.7 3.5 0.00 0.00 0.00 47 820.5
20260504081643 50 0 0.9 2.6 0.00 0.00 0.00 43 821.1
20260504081141 50 0 0.9 3.5 0.00 0.00 0.00 43 821.2
20260504080640 50 0 0.9 3.5 0.00 0.00 0.00 43 821.1
20260504080142 50 0 1.7 3.5 0.00 0.00 0.00 43 821.3
20260504050453 58 26 5.2 8.7 0.00 0.00 0.00 36 822.1
20260504045949 59 13 5.2 8.7 0.00 0.00 0.00 35 822.1
20260504045709 60 25 4.3 8.7 0.00 0.00 0.00 34 821.9
20260504044950 61 98 3.5 8.7 0.00 0.00 0.00 32 821.9
20260504044450 61 260 4.3 7.8 0.00 0.00 0.00 32 821.8
20260504043449 62 275 2.6 6.1 0.00 0.00 0.00 32 821.8
20260504042949 62 257 3.5 6.1 0.00 0.00 0.00 33 821.8
20260504042448 62 223 4.3 7.0 0.00 0.00 0.00 33 821.8
20260504041947 62 240 4.3 7.0 0.00 0.00 0.00 32 821.8
20260504041448 62 244 3.5 7.0 0.00 0.00 0.00 33 821.8
20260504040946 62 236 3.5 6.1 0.00 0.00 0.00 33 821.9
20260504040450 62 242 4.3 6.1 0.00 0.00 0.00 33 821.9
20260504035925 62 247 4.3 6.1 0.00 0.00 0.00 33 821.9
20260504035354 62 256 4.3 7.8 0.00 0.00 0.00 33 821.9
20260504034822 62 241 3.5 7.8 0.00 0.00 0.00 33 821.9
20260504034251 62 238 4.3 7.0 0.00 0.00 0.00 33 822.0
20260504033755 62 242 4.3 7.0 0.00 0.00 0.00 33 822.1
20260504033230 62 234 4.3 7.0 0.00 0.00 0.00 33 822.1
20260504032728 62 232 4.3 7.0 0.00 0.00 0.00 34 822.0
20260504032227 62 240 4.3 6.1 0.00 0.00 0.00 34 822.1
20260504031716 62 246 3.5 5.2 0.00 0.00 0.00 34 822.0
20260504031414 62 254 3.5 5.2 0.00 0.00 0.00 33 822.0
20260504030652 62 254 3.5 5.2 0.00 0.00 0.00 33 822.0
20260504030122 62 245 3.5 7.0 0.00 0.00 0.00 33 822.0
20260504025812 62 246 3.5 7.0 0.00 0.00 0.00 33 822.0
20260504025240 63 259 3.5 5.2 0.00 0.00 0.00 32 821.9
20260504023920 64 246 4.3 7.0 0.00 0.00 0.00 31 821.9
20260504023357 64 243 4.3 7.0 0.00 0.00 0.00 31 821.7
20260504022859 65 240 4.3 7.0 0.00 0.00 0.00 31 821.7
20260504022613 65 242 5.2 7.8 0.00 0.00 0.00 31 821.7
20260504021854 65 248 5.2 8.7 0.00 0.00 0.00 31 821.8
20260504021354 65 273 5.2 8.7 0.00 0.00 0.00 31 821.8
20260504020851 65 245 4.3 7.8 0.00 0.00 0.00 31 821.8
20260504020340 65 238 5.2 7.0 0.00 0.00 0.00 30 821.8
20260504015840 65 254 5.2 8.7 0.00 0.00 0.00 30 821.8
20260504015339 66 250 4.3 8.7 0.00 0.00 0.00 30 821.7
20260504014840 66 242 4.3 7.8 0.00 0.00 0.00 30 821.7
20260504014339 66 261 4.3 7.8 0.00 0.00 0.00 30 821.8
20260504013836 66 247 3.5 7.0 0.00 0.00 0.00 30 821.7
20260504013334 66 262 5.2 7.8 0.00 0.00 0.00 30 821.7
20260504012834 66 246 5.2 9.6 0.00 0.00 0.00 30 821.7
20260504012554 67 259 5.2 9.6 0.00 0.00 0.00 30 821.6
20260504011832 67 274 7.0 12.2 0.00 0.00 0.00 30 821.7
20260504011330 67 292 7.0 12.2 0.00 0.00 0.00 30 821.8
20260504010832 67 296 7.0 12.2 0.00 0.00 0.00 30 821.7
20260504010318 67 279 7.0 12.2 0.00 0.00 0.00 30 821.7
20260504010038 67 283 7.0 15.6 0.00 0.00 0.00 31 821.7
20260504005533 67 248 7.8 15.6 0.00 0.00 0.00 30 821.8
20260504004812 68 288 7.0 12.2 0.00 0.00 0.00 30 821.8
20260504004312 68 267 7.8 14.8 0.00 0.00 0.00 31 821.9
20260504003812 68 287 7.8 14.8 0.00 0.00 0.00 31 822.1
20260504002758 68 261 4.3 11.3 0.00 0.00 0.00 30 822.1
20260504002300 68 262 6.1 11.3 0.00 0.00 0.00 30 822.1